Location: Lake Forest Estates
(37.9451°N, 90.2085°W)
Time: 12:58:31
(UTC+00:00)

ACS3 Solar Sail - Visible Passes

Search period start: 08 November 2024 00:00
Search period end: 18 November 2024 00:00
Orbit: 962 x 1019 km, 97.5° (Epoch: 08 November)

Date Brightness Start Highest point End Pass type
(mag) Time Alt. Az. Time Alt. Az. Time Alt. Az.
08 Nov 2.7 00:52:22 31° NE 00:52:22 31° NE 00:56:18 10° N visible
08 Nov 3.8 02:37:21 22° NW 02:37:21 22° NW 02:39:55 10° NNW visible
09 Nov 2.6 01:22:04 39° N 01:22:04 39° N 01:25:55 10° N visible
09 Nov 4.4 03:07:02 13° NW 03:07:02 13° NW 03:08:02 10° NW visible
10 Nov 3.3 00:06:41 17° NE 00:06:41 17° NE 00:09:39 10° NNE visible
10 Nov 3.0 01:51:40 35° NNW 01:51:40 35° NNW 01:55:08 10° NNW visible
11 Nov 2.9 00:36:11 26° NE 00:36:11 26° NE 00:39:47 10° N visible
11 Nov 3.6 02:21:09 25° NW 02:21:09 25° NW 02:23:55 10° NNW visible
12 Nov 2.7 01:05:34 34° NNE 01:05:34 34° NNE 01:09:16 10° N visible
12 Nov 4.2 02:50:31 16° NW 02:50:31 16° NW 02:52:08 10° NW visible
12 Nov 3.5 23:49:55 13° NE 23:49:55 13° NE 23:51:52 10° NE visible
13 Nov 2.8 01:34:51 36° N 01:34:51 36° N 01:38:20 10° N visible
14 Nov 3.1 00:19:06 21° NE 00:19:06 21° NE 00:22:16 10° NNE visible
14 Nov 3.3 02:04:02 29° NNW 02:04:02 29° NNW 02:07:00 10° NNW visible
15 Nov 2.8 00:48:11 29° NNE 00:48:11 29° NNE 00:51:41 10° N visible
15 Nov 3.9 02:33:07 19° NW 02:33:07 19° NW 02:35:12 10° NNW visible
16 Nov 2.7 01:17:09 35° N 01:17:09 35° N 01:20:36 10° N visible
16 Nov 4.5 03:02:05 12° NW 03:02:05 12° NW 03:02:38 10° NW visible
17 Nov 3.3 00:01:07 16° NE 00:01:07 16° NE 00:03:40 10° NNE visible
17 Nov 3.1 01:46:01 32° NNW 01:46:01 32° NNW 01:49:09 10° NNW visible
